Knoxville, TN

3:46 AM EDT on September 18, 2019 (GMT -0400)
McGhee Tyson

Weather History for KTYS - July, 2019

Change the Weather History Date:

Wednesday, July 10, 2019

  Actual Average Record
Temperature  
Mean Temperature 83 °F 78 °F  
Max Temperature 93 °F 88 °F 101 °F (1936)
Min Temperature 73 °F 69 °F 51 °F (1961)
Degree Days  
Heating Degree Days 0 0  
Month to date heating degree days 0 0  
Since 1 June heating degree days 0 4  
Since 1 July heating degree days 0 0  
Cooling Degree Days 18 13  
Month to date cooling degree days 165 130  
Year to date cooling degree days 744 597  
Since 1 June cooling degree days 444 435  
Growing Degree Days 32 (Base 50)    
Moisture  
Dew Point 71 °F    
Average Humidity 71    
Maximum Humidity 93    
Minimum Humidity 49    
Precipitation  
Precipitation 0.00 in 0.16 in 2.34 in (1939)
Month to date precipitation 0.55 1.67  
Year to date precipitation 39.77 26.92  
Snow  
Snow 0.00 in 0.00 in - ()
Month to date snowfall 0.0 0.0  
Since 1 June snowfall 0.0 0.0  
Since 1 July snowfall 0.0 0.0  
Snow Depth 0.00 in    
Sea Level Pressure  
Sea Level Pressure 29.98 in    
Wind  
Wind Speed 4 mph (NNE)    
Max Wind Speed 12 mph    
Max Gust Speed 16 mph    
Visibility 10 miles    
Events      
T = Trace of Precipitation, MM = Missing Value Source: NWS Daily Summary

Daily Weather History Graph

Daily Weather History Graph

Search for Another Location

Airport or City:

Astronomy

Jul. 10, 2019 Rise Set
Actual Time 6:28 AM EDT 8:54 PM EDT
Civil Twilight 5:58 AM EDT 9:24 PM EDT
Nautical Twilight 5:21 AM EDT 10:00 PM EDT
Astronomical Twilight 4:41 AM EDT 10:40 PM EDT
Moon 3:07 PM EDT (7/10) 1:57 AM EDT (7/10)
Length of Visible Light 15h 25m
Length of Day
14h 26m
Waxing Gibbous, 63% of the Moon is Illuminated
Jul 10
Waxing Gibbous
Jul 16
Full
Jul 24
Last Quarter
Jul 31
New
Aug 7
First Quarter

Hourly Weather History & Observations

Time (EDT) Temp. Heat Index Dew Point Humidity Pressure Visibility Wind Dir Wind Speed Gust Speed Precip Events Conditions
12:53 AM 78.1 °F - 71.1 °F 79% 29.99 in 10.0 mi SW 3.5 mph - N/A   Scattered Clouds
1:53 AM 79.0 °F - 71.1 °F 77% 29.99 in 10.0 mi WSW 3.5 mph - N/A   Partly Cloudy
2:53 AM 75.9 °F - 71.1 °F 85% 29.98 in 10.0 mi SSW 4.6 mph - N/A   Clear
3:53 AM 75.9 °F - 71.1 °F 85% 29.97 in 10.0 mi Calm Calm - N/A   Clear
4:53 AM 73.0 °F - 70.0 °F 90% 29.96 in 10.0 mi ENE 5.8 mph - N/A   Clear
5:53 AM 73.0 °F - 71.1 °F 93% 29.99 in 10.0 mi Calm Calm - N/A   Clear
6:53 AM 73.9 °F - 71.1 °F 91% 30.01 in 10.0 mi East 3.5 mph - N/A   Scattered Clouds
7:53 AM 77.0 °F - 72.0 °F 84% 30.03 in 10.0 mi Calm Calm - N/A   Mostly Cloudy
8:53 AM 78.1 °F - 72.0 °F 81% 30.04 in 10.0 mi Calm Calm - N/A   Mostly Cloudy
9:53 AM 80.1 °F 83.6 °F 71.1 °F 74% 30.04 in 10.0 mi Calm Calm - N/A   Mostly Cloudy
10:53 AM 84.0 °F 89.6 °F 72.0 °F 67% 30.04 in 10.0 mi Calm Calm - N/A   Mostly Cloudy
11:53 AM 86.0 °F 90.7 °F 70.0 °F 59% 30.03 in 10.0 mi Variable 3.5 mph - N/A   Mostly Cloudy
12:53 PM 87.1 °F 92.0 °F 70.0 °F 57% 30.02 in 10.0 mi WSW 9.2 mph - N/A   Scattered Clouds
1:53 PM 89.1 °F 95.0 °F 71.1 °F 55% 30.01 in 10.0 mi Variable 4.6 mph - N/A   Scattered Clouds
2:53 PM 90.0 °F 95.4 °F 70.0 °F 52% 29.99 in 10.0 mi WSW 5.8 mph - N/A   Mostly Cloudy
3:53 PM 91.0 °F 96.6 °F 70.0 °F 50% 29.97 in 10.0 mi WNW 8.1 mph - N/A   Mostly Cloudy
4:53 PM 91.0 °F 95.6 °F 69.1 °F 48% 29.94 in 10.0 mi WNW 4.6 mph - N/A   Mostly Cloudy
5:53 PM 89.1 °F 96.0 °F 72.0 °F 57% 29.93 in 10.0 mi NNW 6.9 mph - N/A   Mostly Cloudy
6:53 PM 86.0 °F 93.0 °F 73.0 °F 65% 29.93 in 10.0 mi NNE 8.1 mph - N/A   Mostly Cloudy
7:53 PM 84.9 °F 91.4 °F 73.0 °F 67% 29.93 in 10.0 mi ENE 3.5 mph - N/A   Mostly Cloudy
8:53 PM 82.9 °F 88.8 °F 73.0 °F 72% 29.93 in 10.0 mi ENE 3.5 mph - N/A   Scattered Clouds
9:53 PM 81.0 °F 86.2 °F 73.9 °F 79% 29.94 in 10.0 mi East 3.5 mph - N/A   Scattered Clouds
10:53 PM 79.0 °F - 73.0 °F 82% 29.95 in 10.0 mi ENE 4.6 mph - N/A   Scattered Clouds
11:53 PM 79.0 °F - 73.0 °F 82% 29.94 in 10.0 mi ESE 3.5 mph - N/A   Scattered Clouds